{"data":{"norad_id":66831,"intl_designator":"2025-280L","name":"STARLINK-35788","alt_names":[],"object_type":"PAYLOAD","status":"ACTIVE","operator":null,"country":"US","launch_date":"2025-12-02","launch_site_code":"AFWTR","launch_vehicle":null,"mission":null,"orbit_class":"UNKNOWN","rcs_meters":null,"size_class":null,"mass_kg":null,"dimensions":null,"purposes":["comms"],"wikipedia_slug":null,"has_3d_model":false,"image_url":null,"decayed_at":null,"tle_current":{"epoch":"2026-09-20T06:10:14.495808Z","epoch_age_seconds":105110,"freshness":"FRESH","line1":"1 66831U 25280L   26263.25711222  .00004701  00000+0  40114-3 0  9996","line2":"2 66831  69.9998 203.7434 0003402 284.0300  76.0480 14.98367874 45220","mean_motion":14.98367874,"eccentricity":0.0003402,"inclination_deg":69.9998,"raan_deg":203.7434,"arg_perigee_deg":284.03,"mean_anomaly_deg":76.048,"bstar":0.00040114,"rev_number":4522,"period_min":96.104569844775,"perigee_km":569.57435541337,"apogee_km":574.30318696809,"semimajor_km":6950.0757711907,"source":"CELESTRAK","updated_at":"2026-09-21T09:00:36.021578Z"}}}